Home   Weather   Brno   Past weeks
Flag for Czech Republic

Past Weather in Brno, Czech Republic — Yesterday and Last 2 Weeks

Now
68 °F

Scattered clouds.


Feels Like: 68 °F
Forecast: 69 / 52 °F
Wind: 2 mph from East

Location: Brno / Turany

Current Time: Oct 23, 2019 at 6:29:27 pm

Latest Report: Oct 23, 2019 at 5:00 pm


Visibility: 9 mi

Pressure: 30.01 "Hg

Humidity: 61%

Dew Point: 54 °F

Location of BrnoLocation

Past Weather in Brno — Graph

°F

Brno Temperature Yesterday

Maximum temperature yesterday: 71 °F (at 3:00 pm)
Minimum temperature yesterday: 49 °F (at 7:00 am)
Average temperature yesterday: 59 °F

High & Low Weather Summary for the Past Weeks

 TemperatureHumidityPressure
High71 °F (Oct 23, 4:00 pm)100% (Oct 12, 11:00 am)30.25 "Hg (Oct 12, 11:00 am)
Low41 °F (Oct 11, 7:00 am)55% (Oct 11, 3:00 pm)29.77 "Hg (Oct 15, 9:00 pm)
Average55 °F84%30.04 "Hg
* Reported Oct 8 5:00 pm — Oct 23 5:00 pm, Brno. Weather by CustomWeather, © 2019

Note: Actual official high and low records may vary slightly from our data, if they occured in-between our weather recording intervals... More about our weather records

Advertising

Brno Weather History for the Previous 24 Hours

Scroll right to see more
 ConditionsComfort  
Time TempWeatherWind HumidityBarometerVisibility
5:00 pm
Wed, Oct 23
68 °FScattered clouds.2 mph61%30.01 "Hg9 mi
4:00 pm71 °FScattered clouds.3 mph60%30.01 "Hg12 mi
3:00 pm71 °FScattered clouds.5 mph62%30.03 "Hg16 mi
2:00 pm68 °FPartly sunny.3 mph71%30.06 "Hg16 mi
1:00 pm66 °FPartly sunny.5 mph75%30.08 "Hg9 mi
12:00 pm63 °FScattered clouds.6 mph81%30.11 "Hg7 mi
11:00 am61 °FFog.6 mph86%30.13 "Hg3 mi
10:00 am58 °FFog.5 mph94%30.15 "Hg2 mi
9:00 am55 °FFog.5 mph100%30.16 "Hg1 mi
8:00 am53 °FFog.5 mph100%30.16 "Hg1 mi
7:00 am52 °FFog.3 mph99%30.16 "Hg0 mi
6:00 am53 °FFog.2 mph98%30.17 "Hg2 mi
5:00 am54 °FFog.3 mph98%30.18 "Hg2 mi
4:00 am53 °FFog.1 mph98%30.18 "Hg1 mi
3:00 am52 °FFog.2 mph98%30.19 "Hg2 mi
2:00 am53 °FFog.2 mph97%30.19 "Hg5 mi
1:00 am54 °FFog.1 mph97%30.19 "Hg2 mi
12:00 am55 °FFog.2 mph97%30.20 "Hg6 mi
11:00 pm
Tue, Oct 22
57 °FPassing clouds.1 mph94%30.20 "Hg6 mi
10:00 pmN/APassing clouds.12 mphN/AN/A1 mi
9:00 pm60 °FPassing clouds.3 mph89%30.19 "Hg7 mi
8:00 pm61 °FPassing clouds.3 mph87%30.19 "Hg7 mi
7:00 pm65 °FPassing clouds.3 mph79%30.18 "Hg9 mi
6:00 pm66 °FPassing clouds.1 mph74%30.17 "Hg9 mi
Weather by CustomWeather, © 2019

See weather overview